Time,TemperatureF,DewpointF,PressureIn,WindDirection,WindDirectionDegrees,WindSpeedMPH,WindSpeedGustMPH,Humidity,HourlyPrecipIn,Conditions,Clouds,dailyrainin,SoftwareType,DateUTC
2013-03-11 00:03:00,25.0,21.0,29.98,NW,320,6.0,14.0,84,0.00,,,0.00,,2013-03-11 05:03:00,
2013-03-11 00:12:00,25.0,21.0,29.98,NW,320,6.0,14.0,84,0.00,,,0.00,,2013-03-11 05:12:00,
2013-03-11 00:22:00,25.0,21.0,29.98,NW,306,4.0,10.0,84,0.00,,,0.00,,2013-03-11 05:22:00,
2013-03-11 00:32:00,24.0,20.0,29.98,West,265,5.0,11.0,84,0.00,,,0.00,,2013-03-11 05:32:00,
2013-03-11 00:42:00,24.0,20.0,29.98,West,265,5.0,11.0,84,0.00,,,0.00,,2013-03-11 05:42:00,
2013-03-11 00:52:00,24.0,20.0,29.98,West,278,4.0,10.0,84,0.00,,,0.00,,2013-03-11 05:52:00,
2013-03-11 01:02:00,24.0,20.0,29.98,NW,305,5.0,12.0,84,0.00,,,0.00,,2013-03-11 06:02:00,
2013-03-11 01:12:00,24.0,20.0,29.98,NW,305,5.0,12.0,84,0.00,,,0.00,,2013-03-11 06:12:00,
2013-03-11 01:22:00,24.0,20.0,29.98,WNW,288,3.0,13.0,84,0.00,,,0.00,,2013-03-11 06:22:00,
2013-03-11 01:32:00,24.0,20.0,29.98,NW,304,4.0,13.0,83,0.00,,,0.00,,2013-03-11 06:32:00,
2013-03-11 01:42:00,24.0,20.0,29.98,NW,304,4.0,13.0,83,0.00,,,0.00,,2013-03-11 06:42:00,
2013-03-11 01:52:00,24.0,20.0,29.98,West,271,5.0,14.0,83,0.00,,,0.00,,2013-03-11 06:52:00,
2013-03-11 02:02:00,24.0,20.0,29.98,NNW,333,4.0,9.0,84,0.00,,,0.00,,2013-03-11 07:02:00,
2013-03-11 02:12:00,24.0,20.0,29.98,NNW,333,4.0,9.0,84,0.00,,,0.00,,2013-03-11 07:12:00,
2013-03-11 02:22:00,24.0,20.0,29.98,WNW,300,3.0,10.0,83,0.00,,,0.00,,2013-03-11 07:22:00,
2013-03-11 02:32:00,24.0,20.0,29.98,WNW,300,3.0,16.0,83,0.00,,,0.00,,2013-03-11 07:32:00,
2013-03-11 02:42:00,24.0,20.0,29.98,WNW,300,3.0,16.0,83,0.00,,,0.00,,2013-03-11 07:42:00,
2013-03-11 02:52:00,24.0,20.0,29.98,NW,315,5.0,14.0,83,0.00,,,0.00,,2013-03-11 07:52:00,
2013-03-11 03:02:00,24.0,20.0,29.98,NW,314,3.0,15.0,83,0.00,,,0.00,,2013-03-11 08:02:00,
2013-03-11 03:12:00,24.0,20.0,29.98,NW,314,3.0,15.0,83,0.00,,,0.00,,2013-03-11 08:12:00,
2013-03-11 03:22:00,24.0,20.0,29.98,NW,304,2.0,9.0,83,0.00,,,0.00,,2013-03-11 08:22:00,
2013-03-11 03:32:00,24.0,20.0,29.97,WNW,296,6.0,11.0,83,0.00,,,0.00,,2013-03-11 08:32:00,
2013-03-11 03:42:00,24.0,20.0,29.97,WNW,296,6.0,11.0,83,0.00,,,0.00,,2013-03-11 08:42:00,
2013-03-11 03:52:00,24.0,20.0,29.96,NW,310,5.0,15.0,83,0.00,,,0.00,,2013-03-11 08:52:00,
2013-03-11 04:02:00,24.0,20.0,29.96,WNW,292,3.0,11.0,83,0.00,,,0.00,,2013-03-11 09:02:00,
2013-03-11 04:12:00,24.0,20.0,29.96,WNW,292,3.0,11.0,83,0.00,,,0.00,,2013-03-11 09:12:00,
2013-03-11 04:23:00,24.0,20.0,29.96,WNW,298,3.0,12.0,83,0.00,,,0.00,,2013-03-11 09:23:00,
2013-03-11 04:32:00,24.0,20.0,29.96,WNW,295,4.0,13.0,83,0.00,,,0.00,,2013-03-11 09:32:00,
2013-03-11 04:42:00,24.0,20.0,29.96,WNW,295,4.0,13.0,83,0.00,,,0.00,,2013-03-11 09:42:00,
2013-03-11 04:52:00,24.0,20.0,29.96,WNW,292,3.0,12.0,83,0.00,,,0.00,,2013-03-11 09:52:00,
2013-03-11 05:02:00,24.0,20.0,29.96,WNW,292,3.0,12.0,83,0.00,,,0.00,,2013-03-11 10:02:00,
2013-03-11 05:12:00,24.0,20.0,29.96,WNW,292,3.0,12.0,83,0.00,,,0.00,,2013-03-11 10:12:00,
2013-03-11 05:22:00,24.0,20.0,29.96,NW,322,3.0,9.0,83,0.00,,,0.00,,2013-03-11 10:22:00,
2013-03-11 05:32:00,24.0,20.0,29.97,NW,304,5.0,13.0,83,0.00,,,0.00,,2013-03-11 10:32:00,
2013-03-11 05:42:00,24.0,20.0,29.97,NW,304,5.0,13.0,83,0.00,,,0.00,,2013-03-11 10:42:00,
2013-03-11 05:52:00,24.0,20.0,29.98,WNW,296,4.0,10.0,83,0.00,,,0.00,,2013-03-11 10:52:00,
2013-03-11 06:02:00,23.0,19.0,29.98,West,272,3.0,10.0,83,0.00,,,0.00,,2013-03-11 11:02:00,
2013-03-11 06:12:00,23.0,19.0,29.98,West,272,3.0,10.0,83,0.00,,,0.00,,2013-03-11 11:12:00,
2013-03-11 06:22:00,23.0,19.0,29.98,West,278,1.0,9.0,83,0.00,,,0.00,,2013-03-11 11:22:00,
2013-03-11 06:32:00,23.0,19.0,29.99,West,279,1.0,11.0,83,0.00,,,0.00,,2013-03-11 11:32:00,
2013-03-11 06:42:00,23.0,19.0,29.99,West,279,1.0,11.0,83,0.00,,,0.00,,2013-03-11 11:42:00,
2013-03-11 06:52:00,23.0,19.0,29.99,WNW,286,4.0,11.0,83,0.00,,,0.00,,2013-03-11 11:52:00,
2013-03-11 07:02:00,23.0,19.0,30.01,NW,308,2.0,8.0,83,0.00,,,0.00,,2013-03-11 12:02:00,
2013-03-11 07:12:00,23.0,19.0,30.01,NW,308,2.0,8.0,83,0.00,,,0.00,,2013-03-11 12:12:00,
2013-03-11 07:22:00,23.0,19.0,30.01,West,259,3.0,6.0,83,0.00,,,0.00,,2013-03-11 12:22:00,
2013-03-11 07:32:00,23.0,18.0,30.01,NW,321,2.0,11.0,82,0.00,,,0.00,,2013-03-11 12:32:00,
2013-03-11 07:42:00,23.0,18.0,30.01,NW,321,2.0,11.0,82,0.00,,,0.00,,2013-03-11 12:42:00,
2013-03-11 07:52:00,23.0,18.0,30.01,West,273,4.0,9.0,82,0.00,,,0.00,,2013-03-11 12:52:00,
2013-03-11 08:02:00,23.0,18.0,30.02,NW,310,3.0,8.0,82,0.00,,,0.00,,2013-03-11 13:02:00,
2013-03-11 08:12:00,23.0,18.0,30.02,NW,310,3.0,8.0,82,0.00,,,0.00,,2013-03-11 13:12:00,
2013-03-11 08:22:00,23.0,18.0,30.02,WNW,299,1.0,16.0,82,0.00,,,0.00,,2013-03-11 13:22:00,
2013-03-11 08:32:00,23.0,19.0,30.02,WNW,302,2.0,10.0,83,0.00,,,0.00,,2013-03-11 13:32:00,
2013-03-11 08:42:00,23.0,19.0,30.02,WNW,302,2.0,10.0,83,0.00,,,0.00,,2013-03-11 13:42:00,
2013-03-11 08:52:00,23.0,19.0,30.02,West,265,5.0,9.0,85,0.00,,,0.00,,2013-03-11 13:52:00,
2013-03-11 09:02:00,22.0,18.0,30.02,NW,307,2.0,8.0,86,0.00,,,0.00,,2013-03-11 14:02:00,
2013-03-11 09:12:00,22.0,18.0,30.02,NW,307,2.0,8.0,86,0.00,,,0.00,,2013-03-11 14:12:00,
2013-03-11 09:22:00,23.0,19.0,30.02,WNW,298,2.0,7.0,86,0.00,,,0.00,,2013-03-11 14:22:00,
2013-03-11 09:32:00,23.0,19.0,30.03,WNW,295,5.0,11.0,85,0.00,,,0.00,,2013-03-11 14:32:00,
2013-03-11 09:42:00,23.0,19.0,30.03,WNW,295,5.0,11.0,85,0.00,,,0.00,,2013-03-11 14:42:00,
2013-03-11 09:52:00,23.0,19.0,30.03,WSW,253,3.0,10.0,85,0.00,,,0.00,,2013-03-11 14:52:00,
2013-03-11 10:02:00,23.0,19.0,30.03,NNW,346,5.0,15.0,84,0.00,,,0.00,,2013-03-11 15:02:00,
2013-03-11 10:12:00,23.0,19.0,30.03,NNW,346,5.0,15.0,84,0.00,,,0.00,,2013-03-11 15:12:00,
2013-03-11 10:22:00,23.0,19.0,30.03,West,261,3.0,11.0,83,0.00,,,0.00,,2013-03-11 15:22:00,
2013-03-11 10:32:00,24.0,20.0,30.03,NW,316,2.0,11.0,83,0.00,,,0.00,,2013-03-11 15:32:00,
2013-03-11 10:42:00,24.0,20.0,30.03,NW,316,2.0,11.0,83,0.00,,,0.00,,2013-03-11 15:42:00,
2013-03-11 10:52:00,24.0,19.0,30.04,WNW,297,4.0,12.0,82,0.00,,,0.00,,2013-03-11 15:52:00,
2013-03-11 11:02:00,24.0,19.0,30.04,NW,309,4.0,13.0,82,0.00,,,0.00,,2013-03-11 16:02:00,
2013-03-11 11:12:00,24.0,19.0,30.04,NW,309,4.0,13.0,82,0.00,,,0.00,,2013-03-11 16:12:00,
2013-03-11 11:22:00,24.0,19.0,30.04,West,273,3.0,9.0,82,0.00,,,0.00,,2013-03-11 16:22:00,
2013-03-11 11:32:00,24.0,19.0,30.05,NW,315,5.0,14.0,81,0.00,,,0.00,,2013-03-11 16:32:00,
2013-03-11 11:42:00,24.0,19.0,30.05,NW,315,5.0,14.0,81,0.00,,,0.00,,2013-03-11 16:42:00,
2013-03-11 11:52:00,24.0,19.0,30.05,NNW,329,6.0,14.0,80,0.00,,,0.00,,2013-03-11 16:52:00,
2013-03-11 12:02:00,24.0,19.0,30.05,WSW,242,5.0,12.0,80,0.00,,,0.00,,2013-03-11 17:02:00,
2013-03-11 12:14:00,24.0,19.0,30.05,WSW,242,5.0,12.0,80,0.00,,,0.00,,2013-03-11 17:14:00,
2013-03-11 12:25:00,25.0,20.0,30.06,West,267,4.0,9.0,80,0.00,,,0.00,,2013-03-11 17:25:00,
2013-03-11 12:35:00,25.0,20.0,30.05,NW,310,1.0,12.0,81,0.00,,,0.00,,2013-03-11 17:35:00,
2013-03-11 12:42:00,25.0,20.0,30.05,NW,310,1.0,12.0,81,0.00,,,0.00,,2013-03-11 17:42:00,
2013-03-11 12:52:00,26.0,20.0,30.05,NW,317,4.0,8.0,78,0.00,,,0.00,,2013-03-11 17:52:00,
2013-03-11 13:02:00,27.0,21.0,30.06,WSW,251,4.0,12.0,78,0.00,,,0.00,,2013-03-11 18:02:00,
2013-03-11 13:12:00,27.0,21.0,30.06,WSW,251,4.0,12.0,78,0.00,,,0.00,,2013-03-11 18:12:00,
2013-03-11 13:22:00,26.0,20.0,30.06,SW,235,3.0,13.0,77,0.00,,,0.00,,2013-03-11 18:22:00,
2013-03-11 13:32:00,26.0,20.0,30.06,WNW,286,3.0,13.0,78,0.00,,,0.00,,2013-03-11 18:32:00,
2013-03-11 13:42:00,26.0,20.0,30.06,WNW,286,3.0,13.0,78,0.00,,,0.00,,2013-03-11 18:42:00,
2013-03-11 13:52:00,26.0,20.0,30.05,West,280,4.0,14.0,77,0.00,,,0.00,,2013-03-11 18:52:00,
2013-03-11 14:02:00,26.0,19.0,30.05,WSW,252,2.0,13.0,76,0.00,,,0.00,,2013-03-11 19:02:00,
2013-03-11 14:12:00,26.0,19.0,30.05,WSW,252,2.0,13.0,76,0.00,,,0.00,,2013-03-11 19:12:00,
2013-03-11 14:22:00,27.0,20.0,30.05,NW,326,3.0,9.0,75,0.00,,,0.00,,2013-03-11 19:22:00,
2013-03-11 14:32:00,27.0,20.0,30.05,WNW,292,4.0,14.0,74,0.00,,,0.00,,2013-03-11 19:32:00,
2013-03-11 14:42:00,27.0,20.0,30.05,WNW,292,4.0,14.0,74,0.00,,,0.00,,2013-03-11 19:42:00,
2013-03-11 14:52:00,27.0,19.0,30.05,WNW,289,2.0,11.0,72,0.00,,,0.00,,2013-03-11 19:52:00,
2013-03-11 15:02:00,29.0,21.0,30.05,West,271,4.0,12.0,72,0.00,,,0.00,,2013-03-11 20:02:00,
2013-03-11 15:12:00,29.0,21.0,30.05,West,271,4.0,12.0,72,0.00,,,0.00,,2013-03-11 20:12:00,
2013-03-11 15:22:00,30.0,21.0,30.05,West,267,4.0,13.0,69,0.00,,,0.00,,2013-03-11 20:22:00,
2013-03-11 15:32:00,30.0,20.0,30.04,NW,325,5.0,10.0,66,0.00,,,0.00,,2013-03-11 20:32:00,
2013-03-11 15:43:00,30.0,20.0,30.04,NW,325,5.0,10.0,66,0.00,,,0.00,,2013-03-11 20:43:00,
2013-03-11 15:52:00,30.0,20.0,30.04,WNW,296,4.0,11.0,67,0.00,,,0.00,,2013-03-11 20:52:00,
2013-03-11 16:03:00,31.0,20.0,30.04,SW,233,4.0,14.0,64,0.00,,,0.00,,2013-03-11 21:03:00,
2013-03-11 16:12:00,31.0,20.0,30.04,SW,233,4.0,14.0,64,0.00,,,0.00,,2013-03-11 21:12:00,
2013-03-11 16:22:00,32.0,21.0,30.03,WNW,290,3.0,12.0,63,0.00,,,0.00,,2013-03-11 21:22:00,
2013-03-11 16:32:00,33.0,21.0,30.03,West,261,5.0,12.0,60,0.00,,,0.00,,2013-03-11 21:32:00,
2013-03-11 16:43:00,33.0,21.0,30.03,West,261,5.0,12.0,60,0.00,,,0.00,,2013-03-11 21:43:00,
2013-03-11 16:52:00,34.0,21.0,30.03,West,261,3.0,13.0,59,0.00,,,0.00,,2013-03-11 21:52:00,
2013-03-11 17:02:00,34.0,21.0,30.03,WNW,299,4.0,11.0,58,0.00,,,0.00,,2013-03-11 22:02:00,
2013-03-11 17:12:00,34.0,21.0,30.03,WNW,299,4.0,11.0,58,0.00,,,0.00,,2013-03-11 22:12:00,
2013-03-11 17:22:00,35.0,21.0,30.04,WNW,299,5.0,10.0,56,0.00,,,0.00,,2013-03-11 22:22:00,
2013-03-11 17:32:00,36.0,21.0,30.04,West,272,3.0,12.0,55,0.00,,,0.00,,2013-03-11 22:32:00,
2013-03-11 17:43:00,36.0,21.0,30.04,West,272,3.0,12.0,55,0.00,,,0.00,,2013-03-11 22:43:00,
2013-03-11 17:52:00,36.0,20.0,30.04,NW,310,5.0,14.0,52,0.00,,,0.00,,2013-03-11 22:52:00,
2013-03-11 18:03:00,35.0,19.0,30.04,NW,325,3.0,11.0,52,0.00,,,0.00,,2013-03-11 23:03:00,
2013-03-11 18:12:00,35.0,19.0,30.04,NW,325,3.0,11.0,52,0.00,,,0.00,,2013-03-11 23:12:00,
2013-03-11 18:22:00,35.0,19.0,30.04,WNW,295,2.0,9.0,52,0.00,,,0.00,,2013-03-11 23:22:00,
2013-03-11 18:32:00,35.0,20.0,30.04,NW,304,0.0,9.0,53,0.00,,,0.00,,2013-03-11 23:32:00,
2013-03-11 18:43:00,35.0,20.0,30.04,NW,304,0.0,9.0,53,0.00,,,0.00,,2013-03-11 23:43:00,
2013-03-11 18:52:00,35.0,20.0,30.05,WNW,292,1.0,8.0,54,0.00,,,0.00,,2013-03-11 23:52:00,
2013-03-11 19:02:00,34.0,19.0,30.05,West,269,1.0,7.0,53,0.00,,,0.00,,2013-03-12 00:02:00,
2013-03-11 19:12:00,34.0,19.0,30.05,West,269,1.0,7.0,53,0.00,,,0.00,,2013-03-12 00:12:00,
2013-03-11 19:22:00,34.0,19.0,30.06,WNW,283,0.0,5.0,53,0.00,,,0.00,,2013-03-12 00:22:00,
2013-03-11 19:33:00,34.0,19.0,30.05,West,275,0.0,5.0,54,0.00,,,0.00,,2013-03-12 00:33:00,
2013-03-11 19:42:00,34.0,19.0,30.05,West,275,0.0,5.0,54,0.00,,,0.00,,2013-03-12 00:42:00,
2013-03-11 19:53:00,33.0,19.0,30.07,West,275,0.0,1.0,55,0.00,,,0.00,,2013-03-12 00:53:00,
2013-03-11 20:02:00,33.0,19.0,30.07,West,275,0.0,2.0,57,0.00,,,0.00,,2013-03-12 01:02:00,
2013-03-11 20:12:00,33.0,19.0,30.07,West,275,0.0,2.0,57,0.00,,,0.00,,2013-03-12 01:12:00,
2013-03-11 20:22:00,32.0,19.0,30.07,West,275,0.0,0.0,58,0.00,,,0.00,,2013-03-12 01:22:00,
2013-03-11 20:32:00,32.0,20.0,30.08,West,275,0.0,0.0,60,0.00,,,0.00,,2013-03-12 01:32:00,
2013-03-11 20:42:00,32.0,20.0,30.08,West,275,0.0,0.0,60,0.00,,,0.00,,2013-03-12 01:42:00,
2013-03-11 20:52:00,32.0,20.0,30.08,West,275,0.0,0.0,61,0.00,,,0.00,,2013-03-12 01:52:00,
2013-03-11 21:02:00,31.0,20.0,30.09,West,275,0.0,0.0,63,0.00,,,0.00,,2013-03-12 02:02:00,
2013-03-11 21:12:00,31.0,20.0,30.09,West,275,0.0,0.0,63,0.00,,,0.00,,2013-03-12 02:12:00,
2013-03-11 21:22:00,30.0,20.0,30.08,West,275,0.0,0.0,65,0.00,,,0.00,,2013-03-12 02:22:00,
2013-03-11 21:32:00,30.0,20.0,30.08,West,275,0.0,0.0,66,0.00,,,0.00,,2013-03-12 02:32:00,
2013-03-11 21:42:00,30.0,20.0,30.08,West,275,0.0,0.0,66,0.00,,,0.00,,2013-03-12 02:42:00,
2013-03-11 21:52:00,30.0,20.0,30.09,West,275,0.0,0.0,66,0.00,,,0.00,,2013-03-12 02:52:00,
2013-03-11 22:02:00,30.0,20.0,30.09,West,275,0.0,0.0,67,0.00,,,0.00,,2013-03-12 03:02:00,
2013-03-11 22:12:00,30.0,20.0,30.09,West,275,0.0,0.0,67,0.00,,,0.00,,2013-03-12 03:12:00,
2013-03-11 22:22:00,29.0,20.0,30.09,West,275,0.0,0.0,69,0.00,,,0.00,,2013-03-12 03:22:00,
2013-03-11 22:32:00,29.0,21.0,30.09,West,275,0.0,0.0,71,0.00,,,0.00,,2013-03-12 03:32:00,
2013-03-11 22:42:00,29.0,21.0,30.09,West,275,0.0,0.0,71,0.00,,,0.00,,2013-03-12 03:42:00,
2013-03-11 22:52:00,29.0,20.0,30.09,West,275,0.0,0.0,70,0.00,,,0.00,,2013-03-12 03:52:00,
2013-03-11 23:02:00,29.0,21.0,30.10,West,275,0.0,1.0,71,0.00,,,0.00,,2013-03-12 04:02:00,
2013-03-11 23:12:00,29.0,21.0,30.10,West,275,0.0,1.0,71,0.00,,,0.00,,2013-03-12 04:12:00,
2013-03-11 23:22:00,28.0,20.0,30.10,West,275,0.0,0.0,71,0.00,,,0.00,,2013-03-12 04:22:00,
2013-03-11 23:32:00,28.0,20.0,30.10,West,275,0.0,0.0,72,0.00,,,0.00,,2013-03-12 04:32:00,
2013-03-11 23:43:00,28.0,20.0,30.10,West,275,0.0,0.0,72,0.00,,,0.00,,2013-03-12 04:43:00,
2013-03-11 23:52:00,28.0,20.0,30.12,West,275,0.0,1.0,73,0.00,,,0.00,,2013-03-12 04:52:00,